Stations météo

réclame
Mon MeteoGroup
Bergamo/Orio al Serio, Italie (16076): Température de l'air & dewpoint: 20.05.2018 17:00:00 - 26.05.2018 17:00:00 (CEST)Bergamo/Orio al Serio, Italie (16076): Vitesse du vent: 20.05.2018 17:00:00 - 26.05.2018 17:00:00 (CEST)Bergamo/Orio al Serio, Italie (16076): Direction du vent: 20.05.2018 17:00:00 - 26.05.2018 17:00:00 (CEST)Bergamo/Orio al Serio, Italie (16076): reduced air pressure: 20.05.2018 17:00:00 - 26.05.2018 17:00:00 (CEST)Bergamo/Orio al Serio, Italie (16076): visibility: 20.05.2018 17:00:00 - 26.05.2018 17:00:00 (CEST)
Date & Time tt [°C] td [°C] ff [km/h] ff [knt] dd ppp [hPa] vv [km]
26.05.2018 17:00:00 28,1 15,1 8 4 SW 1017,1 10
26.05.2018 16:00:00 28,0 16,0 9 5 S - 10
26.05.2018 15:00:00 27,0 16,0 11 6 SW - 8
26.05.2018 14:00:00 26,9 16,9 8 4 WSW 1018,9 8
26.05.2018 13:00:00 26,0 16,0 5 3 - - 8
26.05.2018 12:00:00 25,0 16,0 8 4 SSW - 8
26.05.2018 11:00:00 24,3 15,7 9 5 SSW 1019,8 8
26.05.2018 10:00:00 23,0 15,0 4 2 - - 8
26.05.2018 09:00:00 22,0 16,0 4 2 N - 8
26.05.2018 08:00:00 20,6 15,5 5 3 N 1019,8 8
26.05.2018 07:00:00 19,0 15,0 11 6 N - 10
26.05.2018 06:00:00 18,0 15,0 11 6 N - 10
26.05.2018 05:00:00 18,4 14,4 9 5 N 1019,0 15
26.05.2018 04:00:00 19,0 14,0 11 6 N - 10
26.05.2018 03:00:00 19,0 14,0 9 5 NNE - 10
26.05.2018 02:00:00 19,3 14,4 8 4 NNE 1018,0 10
26.05.2018 01:00:00 20,0 15,0 8 4 NNE - 10
26.05.2018 00:00:00 20,0 15,0 9 5 NNE - 10
25.05.2018 23:00:00 20,7 15,0 8 4 NNE 1016,9 10
25.05.2018 22:00:00 22,0 15,0 9 5 NNE - 10
25.05.2018 21:00:00 25,0 14,0 5 3 S - 10
25.05.2018 20:00:00 26,4 14,3 11 6 S 1014,0 10
25.05.2018 19:00:00 27,0 14,0 13 7 SW - 10
25.05.2018 18:00:00 28,0 13,0 8 4 SSW - 10
25.05.2018 17:00:00 28,2 15,0 11 6 SW 1013,8 10
25.05.2018 16:00:00 28,0 15,0 9 5 SW - 10
25.05.2018 15:00:00 27,0 13,0 13 7 SSW - 10
25.05.2018 14:00:00 27,0 13,2 5 3 - 1014,6 10
25.05.2018 13:00:00 26,0 15,0 9 5 - - 10
25.05.2018 12:00:00 25,0 15,0 8 4 SW - 10
25.05.2018 11:00:00 24,2 14,8 8 4 SW 1015,8 10
25.05.2018 10:00:00 23,0 14,0 4 2 - - 10
25.05.2018 09:00:00 21,0 14,0 5 3 N - 10
25.05.2018 08:00:00 19,4 13,8 11 6 N 1016,6 15
25.05.2018 07:00:00 17,0 13,0 11 6 N - 10
25.05.2018 06:00:00 16,0 13,0 11 6 N - 10
25.05.2018 05:00:00 16,4 12,8 11 6 N 1016,6 10
25.05.2018 04:00:00 17,0 13,0 9 5 NNE - 10
25.05.2018 03:00:00 17,0 13,0 11 6 NE - 10
25.05.2018 02:00:00 17,6 13,4 9 5 NNE 1016,9 10
25.05.2018 01:00:00 18,0 14,0 8 4 NNE - 10
25.05.2018 00:00:00 18,0 14,0 9 5 NNE - 10
24.05.2018 23:00:00 18,9 14,1 8 4 NNE 1016,5 10
24.05.2018 22:00:00 21,0 14,0 8 4 NNE - 10
24.05.2018 21:00:00 23,0 14,0 8 4 SSW - 10
24.05.2018 20:00:00 24,1 13,4 9 5 SSW 1014,7 10
24.05.2018 19:00:00 25,0 14,0 9 5 SSW - 10
24.05.2018 18:00:00 25,0 12,0 9 5 SSW - 10
24.05.2018 17:00:00 25,7 13,0 11 6 SSW 1014,7 10
24.05.2018 16:00:00 26,0 13,0 8 4 - - 10
24.05.2018 15:00:00 25,0 13,0 13 7 S - 10
24.05.2018 14:00:00 24,5 13,3 13 7 S 1016,1 10
24.05.2018 13:00:00 24,0 15,0 13 7 SSW - 10
24.05.2018 12:00:00 24,0 15,0 11 6 WSW - 10
24.05.2018 11:00:00 22,5 14,3 8 4 - 1017,3 10
24.05.2018 10:00:00 21,0 14,0 4 2 SSW - 10
24.05.2018 09:00:00 20,0 14,0 5 3 ENE - 10
24.05.2018 08:00:00 18,8 13,2 5 3 NE 1017,3 10
24.05.2018 07:00:00 16,0 13,0 4 2 - - 10
24.05.2018 06:00:00 15,0 13,0 9 5 NNE - 10
24.05.2018 05:00:00 15,9 12,8 9 5 N 1017,5 10
24.05.2018 04:00:00 16,0 13,0 8 4 N - 10
24.05.2018 03:00:00 16,0 13,0 9 5 NE - 10
24.05.2018 02:00:00 15,9 13,0 9 5 N 1017,8 10
24.05.2018 01:00:00 16,0 13,0 9 5 N - 10
24.05.2018 00:00:00 17,0 13,0 9 5 NNE - 10
23.05.2018 23:00:00 16,8 13,4 9 5 N 1017,6 10
23.05.2018 22:00:00 18,0 14,0 11 6 NNE - 10
23.05.2018 21:00:00 19,0 13,0 11 6 NNE - 10
23.05.2018 20:00:00 19,9 12,6 15 8 NE 1016,2 10
23.05.2018 19:00:00 20,0 13,0 13 7 E - 10
23.05.2018 18:00:00 24,0 13,0 8 4 - - 10
23.05.2018 17:00:00 23,9 13,1 8 4 SSW 1015,4 10
23.05.2018 16:00:00 23,0 14,0 8 4 - - 10
23.05.2018 15:00:00 23,0 15,0 9 5 S - 10
23.05.2018 14:00:00 23,1 15,5 11 6 SW 1016,5 10
23.05.2018 13:00:00 22,0 15,0 9 5 - - 10
23.05.2018 12:00:00 20,0 14,0 11 6 SW - 10
23.05.2018 11:00:00 20,0 14,2 9 5 W 1016,9 10
23.05.2018 10:00:00 20,0 15,0 5 3 - - 10
23.05.2018 09:00:00 18,0 16,0 2 1 - - 10
23.05.2018 08:00:00 16,2 14,6 9 5 NNE 1017,0 8
23.05.2018 07:00:00 15,0 14,0 8 4 N - 10
23.05.2018 06:00:00 15,0 14,0 9 5 N - 10
23.05.2018 05:00:00 15,0 14,4 9 5 N 1016,1 6
23.05.2018 04:00:00 15,0 15,0 8 4 N - 3,0
23.05.2018 03:00:00 16,0 15,0 5 3 E - 5
23.05.2018 02:00:00 15,9 14,6 5 3 NNE 1016,5 5
23.05.2018 01:00:00 16,0 15,0 9 5 NNE - 5
23.05.2018 00:00:00 16,0 15,0 8 4 N - 5
22.05.2018 23:00:00 16,0 15,2 8 4 NNW 1016,7 4,0
22.05.2018 22:00:00 16,0 15,0 15 8 - - 5
22.05.2018 21:00:00 16,0 15,0 4 2 - - 5
22.05.2018 20:00:00 16,1 14,8 8 4 S 1015,2 7
22.05.2018 19:00:00 17,0 15,0 8 4 NNW - 8
22.05.2018 18:00:00 17,0 15,0 9 5 NW - 8
22.05.2018 17:00:00 18,0 14,2 13 7 SW 1014,8 8
22.05.2018 16:00:00 18,0 15,0 13 7 SW - 8
22.05.2018 15:00:00 18,0 14,0 11 6 S - 8
22.05.2018 14:00:00 18,8 13,5 8 4 SW 1014,5 8
22.05.2018 13:00:00 19,0 14,0 8 4 W - 8
22.05.2018 12:00:00 17,0 15,0 5 3 W - 6
22.05.2018 11:00:00 17,3 14,7 4 2 - 1014,5 6
22.05.2018 10:00:00 16,0 14,0 9 5 SSE - 6
22.05.2018 09:00:00 16,0 14,0 8 4 ESE - 6
22.05.2018 08:00:00 16,5 13,6 13 7 SE 1014,0 10
22.05.2018 07:00:00 16,0 14,0 13 7 NE - 10
22.05.2018 06:00:00 15,0 13,0 8 4 SE - 10
22.05.2018 05:00:00 15,5 11,6 9 5 NNW 1012,2 10
22.05.2018 04:00:00 16,0 12,0 11 6 NNE - 10
22.05.2018 03:00:00 16,0 12,0 9 5 N - 10
22.05.2018 02:00:00 16,9 11,7 11 6 NNE 1012,4 10
22.05.2018 01:00:00 16,0 13,0 11 6 NNE - 10
22.05.2018 00:00:00 17,0 13,0 9 5 N - 10
21.05.2018 23:00:00 16,2 13,9 15 8 N 1013,8 10
21.05.2018 22:00:00 17,0 13,0 9 5 ENE - 10
21.05.2018 21:00:00 18,0 13,0 18 10 S - 10
21.05.2018 20:00:00 19,5 11,2 11 6 NNE 1012,3 10
21.05.2018 19:00:00 20,0 10,0 16 9 NNE - 10
21.05.2018 18:00:00 20,0 10,0 15 8 NNE - 10
21.05.2018 17:00:00 20,1 9,8 18 10 NNE 1012,7 10
21.05.2018 16:00:00 20,0 11,0 26 14 NE - 10
21.05.2018 15:00:00 23,0 12,0 8 4 - - 10
21.05.2018 14:00:00 23,1 11,6 8 4 - 1014,1 10
21.05.2018 13:00:00 23,0 11,0 5 3 - - 10
21.05.2018 12:00:00 22,0 11,0 8 4 SSW - 10
21.05.2018 11:00:00 21,0 11,7 8 4 NW 1015,6 10
21.05.2018 10:00:00 19,0 13,0 11 6 N - 10
21.05.2018 09:00:00 17,0 13,0 13 7 N - 10
21.05.2018 08:00:00 15,0 12,3 16 9 NE 1016,7 10
21.05.2018 07:00:00 15,0 11,0 9 5 N - 10
21.05.2018 06:00:00 14,0 12,0 5 3 N - 10
21.05.2018 05:00:00 14,8 11,1 5 3 NNE 1016,2 10
21.05.2018 04:00:00 15,0 11,0 13 7 NE - 10
21.05.2018 03:00:00 15,0 11,0 8 4 NNE - 10
21.05.2018 02:00:00 14,2 11,1 9 5 NE 1016,7 10
21.05.2018 01:00:00 14,0 12,0 8 4 NNE - 10
21.05.2018 00:00:00 14,0 12,0 11 6 NNW - 10
20.05.2018 23:00:00 14,9 12,3 13 7 NNW 1017,2 10
20.05.2018 22:00:00 15,0 13,0 16 9 N - 10
20.05.2018 21:00:00 17,0 12,0 9 5 NNW - 10
20.05.2018 20:00:00 15,5 12,5 21 11 N 1015,6 10
20.05.2018 19:00:00 16,0 13,0 21 11 NW - 10
20.05.2018 18:00:00 16,0 13,0 21 11 N - 8
20.05.2018 17:00:00 19,2 12,4 16 9 NNW 1014,8 10

tt = Température de l'air
td = dewpoint
ff = Vitesse du vent
dd = Direction du vent
ppp = reduced air pressure
vv = visibility

stations d'obs. à proximité